DeLand, FL

3:23 AM EST on February 24, 2017 (GMT -0500)
De Land Municipal-Taylor

Weather History for KDED - March, 2012

Change the Weather History Date:

Wednesday, March 14, 2012

  Actual Average Record
Temperature  
Mean Temperature 68 °F -  
Max Temperature 80 °F 76 °F 89 °F (2015)
Min Temperature 57 °F 50 °F 39 °F (2013)
Cooling Degree Days 4    
Growing Degree Days 18 (Base 50)    
Moisture  
Dew Point 60 °F    
Average Humidity 76    
Maximum Humidity 100    
Minimum Humidity 45    
Precipitation  
Precipitation 0.00 in - - ()
Sea Level Pressure  
Sea Level Pressure 30.24 in    
Wind  
Wind Speed 2 mph ()    
Max Wind Speed 13 mph    
Max Gust Speed 17 mph    
Visibility 9.5 miles    
Events      
Averages and records for this station are not official NWS values.
T = Trace of Precipitation, MM = Missing Value Source: Averaged Metar Reports

Daily Weather History Graph

Daily Weather History Graph

Search for Another Location

Airport or City:

Trip Planner

Search our weather history database for the weather conditions in past years. The results will help you decide how hot, cold, wet, or windy it might be!

Date:

Astronomy

Mar. 14, 2012 Rise Set
Actual Time 7:35 AM EDT 7:33 PM EDT
Civil Twilight 7:11 AM EDT 7:56 PM EDT
Nautical Twilight 6:44 AM EDT 8:24 PM EDT
Astronomical Twilight 6:16 AM EDT 8:52 PM EDT
Moon 1:36 AM EDT (3/14) 12:15 PM EDT (3/14)
Length of Visible Light 12h 45m
Length of Day
11h 57m
Waning Gibbous, 54% of the Moon is Illuminated
Mar 14
Waning Gibbous
Mar 14
Last Quarter
Mar 22
New
Mar 30
First Quarter
Apr 6
Full

Hourly Weather History & Observations

Time (EDT) Temp. Heat Index Dew Point Humidity Pressure Visibility Wind Dir Wind Speed Gust Speed Precip Events Conditions
12:15 AM 62.6 °F - 59.0 °F 88% 30.25 in 9.0 mi Calm Calm - N/A   Clear
12:35 AM 62.6 °F - 59.0 °F 88% 30.25 in 8.0 mi Calm Calm - N/A   Clear
12:55 AM 62.6 °F - 59.0 °F 88% 30.25 in 9.0 mi Calm Calm - N/A   Clear
1:15 AM 62.6 °F - 59.0 °F 88% 30.24 in 10.0 mi Calm Calm - N/A   Clear
1:35 AM 60.8 °F - 59.0 °F 94% 30.24 in 9.0 mi Calm Calm - N/A   Clear
1:55 AM 60.8 °F - 59.0 °F 94% 30.23 in 8.0 mi Calm Calm - N/A   Clear
2:15 AM 60.8 °F - 57.2 °F 88% 30.22 in 9.0 mi Calm Calm - N/A   Clear
2:35 AM 60.8 °F - 57.2 °F 88% 30.22 in 10.0 mi Calm Calm - N/A   Clear
2:55 AM 60.8 °F - 57.2 °F 88% 30.22 in 10.0 mi Calm Calm - N/A   Clear
3:15 AM 59.0 °F - 57.2 °F 94% 30.21 in 9.0 mi Calm Calm - N/A   Clear
3:55 AM 59.0 °F - 55.4 °F 88% 30.20 in 10.0 mi Calm Calm - N/A   Clear
4:15 AM 59.0 °F - 57.2 °F 94% 30.20 in 9.0 mi Calm Calm - N/A   Clear
4:35 AM 59.0 °F - 55.4 °F 88% 30.20 in 10.0 mi Calm Calm - N/A   Clear
4:55 AM 57.2 °F - 55.4 °F 94% 30.20 in 9.0 mi Calm Calm - N/A   Clear
5:15 AM 59.0 °F - 57.2 °F 94% 30.20 in 10.0 mi Calm Calm - N/A   Clear
5:35 AM 57.2 °F - 55.4 °F 94% 30.20 in 10.0 mi Calm Calm - N/A   Clear
5:55 AM 57.2 °F - 55.4 °F 94% 30.21 in 10.0 mi Calm Calm - N/A   Clear
6:15 AM 57.2 °F - 55.4 °F 94% 30.22 in 10.0 mi Calm Calm - N/A   Clear
6:35 AM 57.2 °F - 55.4 °F 94% 30.23 in 10.0 mi Calm Calm - N/A   Clear
6:55 AM 57.2 °F - 55.4 °F 94% 30.24 in 10.0 mi Calm Calm - N/A   Clear
7:15 AM 57.2 °F - 55.4 °F 94% 30.25 in 5.0 mi Calm Calm - N/A   Scattered Clouds
7:35 AM 57.2 °F - 57.2 °F 100% 30.25 in 4.0 mi Calm Calm - N/A   Scattered Clouds
7:55 AM 57.2 °F - 55.4 °F 94% 30.25 in 9.0 mi Calm Calm - N/A   Clear
8:35 AM 60.8 °F - 60.8 °F 100% 30.27 in 9.0 mi Calm Calm - N/A   Clear
8:55 AM 62.6 °F - 60.8 °F 94% 30.27 in 10.0 mi NNW 3.5 mph - N/A   Clear
9:15 AM 66.2 °F - 62.6 °F 88% 30.28 in 10.0 mi Calm Calm - N/A   Clear
9:55 AM 71.6 °F - 62.6 °F 73% 30.28 in 10.0 mi North 4.6 mph - N/A   Clear
10:15 AM 71.6 °F - 62.6 °F 73% 30.28 in 9.0 mi NNW 3.5 mph - N/A   Clear
10:35 AM 73.4 °F - 62.6 °F 69% 30.28 in 10.0 mi Calm Calm - N/A   Clear
10:55 AM 73.4 °F - 62.6 °F 69% 30.28 in 10.0 mi NNE 4.6 mph - N/A   Clear
11:15 AM 75.2 °F - 60.8 °F 61% 30.28 in 10.0 mi North 3.5 mph - N/A   Clear
11:35 AM 75.2 °F - 60.8 °F 61% 30.28 in 10.0 mi Calm Calm - N/A   Partly Cloudy
11:55 AM 77.0 °F - 60.8 °F 57% 30.28 in 10.0 mi ENE 4.6 mph - N/A   Partly Cloudy
12:15 PM 77.0 °F - 60.8 °F 57% 30.27 in 10.0 mi NNE 6.9 mph - N/A   Partly Cloudy
12:35 PM 78.8 °F - 60.8 °F 54% 30.27 in 10.0 mi ENE 6.9 mph - N/A   Scattered Clouds
12:55 PM 78.8 °F - 60.8 °F 54% 30.27 in 10.0 mi NE 3.5 mph - N/A   Scattered Clouds
1:15 PM 78.8 °F - 60.8 °F 54% 30.26 in 10.0 mi ENE 5.8 mph - N/A   Scattered Clouds
1:35 PM 80.6 °F 81.5 °F 60.8 °F 51% 30.25 in 10.0 mi Calm Calm - N/A   Partly Cloudy
1:55 PM 80.6 °F 81.1 °F 59.0 °F 48% 30.24 in 5.0 mi East 9.2 mph - N/A   Scattered Clouds
2:15 PM 80.6 °F 81.1 °F 59.0 °F 48% 30.23 in 10.0 mi NE 10.4 mph - N/A   Mostly Cloudy
2:55 PM 80.6 °F 81.5 °F 60.8 °F 51% 30.22 in 9.0 mi East 10.4 mph - N/A   Clear
3:15 PM 80.6 °F 81.5 °F 60.8 °F 51% 30.21 in 10.0 mi East 10.4 mph - N/A   Clear
3:55 PM 80.6 °F 81.1 °F 59.0 °F 48% 30.21 in 9.0 mi ENE 9.2 mph 17.3 mph N/A   Clear
4:15 PM 80.6 °F 80.8 °F 57.2 °F 45% 30.21 in 10.0 mi ENE 11.5 mph - N/A   Clear
4:55 PM 80.6 °F 80.8 °F 57.2 °F 45% 30.20 in 10.0 mi ENE 10.4 mph - N/A   Clear
5:15 PM 78.8 °F - 59.0 °F 51% 30.19 in 10.0 mi East 12.7 mph - N/A   Clear
5:35 PM 78.8 °F - 60.8 °F 54% 30.19 in 10.0 mi ENE 12.7 mph - N/A   Clear
5:55 PM 77.0 °F - 60.8 °F 57% 30.19 in 10.0 mi East 11.5 mph - N/A   Clear
6:15 PM 77.0 °F - 60.8 °F 57% 30.19 in 10.0 mi East 12.7 mph - N/A   Clear
6:35 PM 75.2 °F - 62.6 °F 65% 30.20 in 10.0 mi East 12.7 mph - N/A   Clear
6:55 PM 73.4 °F - 60.8 °F 65% 30.21 in 10.0 mi East 10.4 mph - N/A   Clear
7:15 PM 73.4 °F - 62.6 °F 69% 30.21 in 10.0 mi East 8.1 mph - N/A   Clear
7:35 PM 71.6 °F - 62.6 °F 73% 30.22 in 10.0 mi East 6.9 mph - N/A   Clear
7:55 PM 71.6 °F - 62.6 °F 73% 30.22 in 10.0 mi East 5.8 mph - N/A   Clear
8:15 PM 69.8 °F - 62.6 °F 78% 30.22 in 10.0 mi East 4.6 mph - N/A   Clear
8:35 PM 69.8 °F - 62.6 °F 78% 30.23 in 10.0 mi East 4.6 mph - N/A   Clear
8:55 PM 69.8 °F - 62.6 °F 78% 30.23 in 10.0 mi East 3.5 mph - N/A   Clear
9:15 PM 69.8 °F - 62.6 °F 78% 30.24 in 10.0 mi Calm Calm - N/A   Clear
9:35 PM 69.8 °F - 62.6 °F 78% 30.25 in 10.0 mi Calm Calm - N/A   Clear
9:55 PM 68.0 °F - 62.6 °F 83% 30.25 in 10.0 mi Calm Calm - N/A   Clear
10:15 PM 68.0 °F - 62.6 °F 83% 30.25 in 10.0 mi East 4.6 mph - N/A   Clear
10:35 PM 68.0 °F - 64.4 °F 88% 30.25 in 10.0 mi Calm Calm - N/A   Clear
10:55 PM 68.0 °F - 64.4 °F 88% 30.25 in 10.0 mi Calm Calm - N/A   Clear
11:15 PM 66.2 °F - 64.4 °F 94% 30.25 in 10.0 mi Calm Calm - N/A   Clear
11:55 PM 66.2 °F - 62.6 °F 88% 30.25 in 10.0 mi Calm Calm - N/A   Clear